W6SNO-1 Weather Reports


time (UTC)temp
C
wind
direction
speed
KPH
gust
KPH
rain 1hr
cm
rain 24hr
cm
rain mn
cm
humidity
%
barometer
mb
20260505203704 15 272 1.6 1.6 0.00 0.00 0.00 71 1016.3
20260505203200 15 334 0.0 1.6 0.00 0.00 0.00 71 1016.5
20260505202656 15 337 0.0 1.6 0.00 0.00 0.00 72 1016.2
20260505202152 15 349 1.6 1.6 0.00 0.00 0.00 74 1016.2
20260505201648 15 343 1.6 3.2 0.00 0.00 0.00 73 1016.4
20260505201147 15 339 0.0 1.6 0.00 0.00 0.00 72 1016.5
20260505200645 15 359 0.0 0.0 0.00 0.00 0.00 71 1016.5
20260505200141 15 330 1.6 1.6 0.00 0.00 0.00 71 1016.4
20260505195637 15 318 1.6 1.6 0.00 0.00 0.00 71 1016.4
20260505195135 15 345 0.0 0.0 0.00 0.00 0.00 71 1016.6
20260505194632 15 352 0.0 0.0 0.00 0.00 0.00 71 1016.5
20260505194127 15 341 0.0 0.0 0.00 0.00 0.00 71 1016.6
20260505193625 15 346 1.6 1.6 0.00 0.00 0.00 71 1016.7
20260505193121 15 355 0.0 1.6 0.00 0.00 0.00 71 1016.7
20260505192620 15 10 1.6 3.2 0.00 0.00 0.00 71 1016.8
20260505192117 15 357 1.6 3.2 0.00 0.00 0.00 70 1016.6
20260505191616 15 332 1.6 1.6 0.00 0.00 0.00 69 1016.4
20260505191113 15 329 0.0 1.6 0.00 0.00 0.00 70 1016.4
20260505190608 14 21 0.0 1.6 0.00 0.00 0.00 70 1016.5
20260505190104 14 25 1.6 1.6 0.00 0.00 0.00 71 1016.5
20260505185601 14 333 1.6 1.6 0.00 0.00 0.00 71 1016.6
20260505185057 14 349 1.6 1.6 0.00 0.00 0.00 71 1016.4
20260505184554 14 356 1.6 3.2 0.00 0.00 0.00 71 1016.4
20260505184051 14 349 1.6 1.6 0.00 0.00 0.00 71 1016.7
20260505183547 14 352 0.0 1.6 0.00 0.00 0.00 71 1016.7
20260505183045 14 344 0.0 0.0 0.00 0.00 0.00 71 1016.5
20260505182541 14 340 0.0 0.0 0.00 0.00 0.00 70 1016.5
20260505182038 14 350 0.0 1.6 0.00 0.00 0.00 71 1016.6
20260505181535 13 0 0.0 0.0 0.00 0.00 0.00 72 1016.5
20260505181032 13 337 0.0 0.0 0.00 0.00 0.00 71 1016.5
20260505180527 13 342 0.0 0.0 0.00 0.00 0.00 72 1016.4
20260505180026 13 354 1.6 1.6 0.00 0.00 0.00 72 1016.3
20260505175520 13 351 0.0 0.0 0.00 0.00 0.00 73 1016.3
20260505175018 13 358 1.6 1.6 0.00 0.00 0.00 72 1016.2
20260505174514 13 359 1.6 1.6 0.00 0.00 0.00 72 1016.4
20260505174010 13 344 1.6 3.2 0.00 0.00 0.00 72 1016.3
20260505173507 13 2 0.0 0.0 0.00 0.00 0.00 71 1015.9
20260505173004 13 342 0.0 0.0 0.00 0.00 0.00 71 1016.1
20260505172503 13 348 1.6 1.6 0.00 0.00 0.00 71 1015.8
20260505172003 13 3 0.0 1.6 0.00 0.00 0.00 72 1016.0
20260505171459 13 3 0.0 1.6 0.00 0.00 0.00 72 1016.0
20260505170955 13 9 0.0 1.6 0.00 0.00 0.00 73 1016.0
20260505170452 13 339 0.0 1.6 0.00 0.00 0.00 73 1016.0
20260505165948 13 352 3.2 3.2 0.00 0.00 0.00 74 1016.0
20260505165444 13 355 1.6 1.6 0.00 0.00 0.00 73 1015.7
20260505164939 13 341 1.6 1.6 0.00 0.00 0.00 72 1015.9
20260505164436 13 1 0.0 0.0 0.00 0.00 0.00 73 1015.7
20260505163934 13 349 1.6 3.2 0.00 0.00 0.00 74 1015.8
20260505163433 13 0 1.6 1.6 0.00 0.00 0.00 74 1015.8
20260505162931 13 356 1.6 1.6 0.00 0.00 0.00 74 1015.6
20260505162427 13 349 0.0 0.0 0.00 0.00 0.00 75 1015.8
20260505161924 13 342 0.0 1.6 0.00 0.00 0.00 75 1015.9
20260505161420 13 351 0.0 0.0 0.00 0.00 0.00 75 1015.6
20260505160918 13 350 0.0 0.0 0.00 0.00 0.00 75 1016.0
20260505160416 -17 0.0 0.0 0.00 0.00 0.00 1015.8
20260505153355 12 317 0.0 1.6 0.00 0.00 0.00 77 1015.6
20260505152852 -17 0.0 0.0 0.00 0.00 0.00 1015.8
20260505152350 -17 0.0 0.0 0.00 0.00 0.00 1015.7
20260505151849 11 320 0.0 0.0 0.00 0.00 0.00 78 1015.5
20260505151346 11 320 0.0 0.0 0.00 0.00 0.00 78 1015.6
20260505150843 12 332 0.0 0.0 0.00 0.00 0.00 77 1015.5
20260505150340 12 332 0.0 0.0 0.00 0.00 0.00 77 1015.4
20260505140259 11 359 0.0 0.0 0.00 0.00 0.00 82 1015.1
20260505130222 11 4 0.0 0.0 0.00 0.00 0.00 79 1014.9
20260505124712 11 4 0.0 0.0 0.00 0.00 0.00 79 1015.0
20260505124209 11 4 0.0 0.0 0.00 0.00 0.00 79 1015.1
20260505123705 11 4 0.0 0.0 0.00 0.00 0.00 80 1014.9
20260505123202 11 4 0.0 0.0 0.00 0.00 0.00 79 1015.2
20260505122658 11 4 0.0 0.0 0.00 0.00 0.00 80 1015.1
20260505122155 11 4 0.0 0.0 0.00 0.00 0.00 80 1015.0
20260505121652 11 6 0.0 0.0 0.00 0.00 0.00 80 1015.1
20260505121149 11 6 0.0 0.0 0.00 0.00 0.00 80 1015.1
20260505120645 11 6 0.0 0.0 0.00 0.00 0.00 80 1015.0
20260505120141 11 6 0.0 0.0 0.00 0.00 0.00 79 1014.9
20260505115635 11 6 0.0 0.0 0.00 0.00 0.00 79 1014.9
20260505115134 11 7 0.0 0.0 0.00 0.00 0.00 78 1015.3
20260505114630 11 7 0.0 0.0 0.00 0.00 0.00 78 1015.1
20260505114126 11 359 0.0 0.0 0.00 0.00 0.00 79 1015.1
20260505113623 11 359 0.0 0.0 0.00 0.00 0.00 79 1015.3
20260505113119 11 359 0.0 0.0 0.00 0.00 0.00 79 1015.2
20260505112615 11 359 0.0 0.0 0.00 0.00 0.00 78 1015.0
20260505112114 11 358 0.0 0.0 0.00 0.00 0.00 78 1015.0
20260505111613 11 359 0.0 0.0 0.00 0.00 0.00 79 1015.0
20260505111109 11 359 0.0 0.0 0.00 0.00 0.00 77 1015.1
20260505110606 11 359 0.0 0.0 0.00 0.00 0.00 77 1015.2
20260505102039 11 1 0.0 0.0 0.00 0.00 0.00 78 1014.9
20260505101537 11 358 0.0 0.0 0.00 0.00 0.00 79 1015.2
20260505101033 11 358 0.0 0.0 0.00 0.00 0.00 79 1015.2
20260505100530 11 358 0.0 0.0 0.00 0.00 0.00 79 1015.2
20260505100027 11 7 0.0 0.0 0.00 0.00 0.00 80 1015.1
20260505095523 11 7 0.0 0.0 0.00 0.00 0.00 80 1015.2
20260505095019 11 8 0.0 0.0 0.00 0.00 0.00 80 1015.2
20260505094516 11 9 0.0 0.0 0.00 0.00 0.00 79 1015.2
20260505094012 11 9 0.0 0.0 0.00 0.00 0.00 81 1015.2
20260505093509 11 9 0.0 0.0 0.00 0.00 0.00 80 1015.4
20260505093006 12 9 0.0 0.0 0.00 0.00 0.00 79 1015.4
20260505092504 11 9 0.0 0.0 0.00 0.00 0.00 78 1015.4
20260505092001 11 9 0.0 0.0 0.00 0.00 0.00 79 1015.2
20260505091459 11 9 0.0 0.0 0.00 0.00 0.00 79 1015.4
20260505090957 11 9 0.0 0.0 0.00 0.00 0.00 79 1015.5
20260505090454 11 9 0.0 0.0 0.00 0.00 0.00 79 1015.5
20260505085951 11 355 0.0 0.0 0.00 0.00 0.00 79 1015.6
20260505085449 11 355 0.0 0.0 0.00 0.00 0.00 79 1015.5
20260505084947 11 2 0.0 0.0 0.00 0.00 0.00 79 1015.7
20260505084446 11 3 0.0 0.0 0.00 0.00 0.00 80 1015.8
20260505083943 11 2 3.2 3.2 0.00 0.00 0.00 81 1015.8
20260505083440 11 355 0.0 0.0 0.00 0.00 0.00 82 1015.8
20260505082936 11 355 0.0 0.0 0.00 0.00 0.00 82 1015.8
20260505082432 11 1 0.0 0.0 0.00 0.00 0.00 82 1015.9
20260505081929 11 342 0.0 1.6 0.00 0.00 0.00 83 1015.6
20260505081426 11 304 0.0 0.0 0.00 0.00 0.00 83 1015.9
20260505080922 11 304 0.0 0.0 0.00 0.00 0.00 83 1015.9
20260505080419 11 345 0.0 0.0 0.00 0.00 0.00 83 1015.9
20260505075914 11 345 0.0 0.0 0.00 0.00 0.00 83 1015.9
20260505075411 11 339 0.0 0.0 0.00 0.00 0.00 83 1016.1
20260505074909 11 246 1.6 1.6 0.00 0.00 0.00 83 1015.8
20260505074406 11 338 0.0 1.6 0.00 0.00 0.00 83 1015.8
20260505073903 11 353 0.0 0.0 0.00 0.00 0.00 84 1015.9
20260505073401 11 353 0.0 0.0 0.00 0.00 0.00 83 1015.8
20260505072858 11 354 0.0 0.0 0.00 0.00 0.00 83 1015.7
20260505072354 11 353 0.0 0.0 0.00 0.00 0.00 83 1015.8
20260505071850 11 342 0.0 0.0 0.00 0.00 0.00 83 1015.4
20260505071346 11 9 0.0 1.6 0.00 0.00 0.00 82 1015.6
20260505070845 11 6 0.0 0.0 0.00 0.00 0.00 82 1015.7
20260505070341 12 3 0.0 0.0 0.00 0.00 0.00 82 1015.5
20260505065836 12 3 0.0 0.0 0.00 0.00 0.00 82 1015.6
20260505065333 -17 0.0 0.0 0.00 0.00 0.00 1015.6
20260505064830 12 351 0.0 0.0 0.00 0.00 0.00 81 1015.3
20260505064327 12 351 0.0 0.0 0.00 0.00 0.00 81 1015.4
20260505063825 12 354 0.0 0.0 0.00 0.00 0.00 81 1015.5
20260505063321 12 6 1.6 1.6 0.00 0.00 0.00 81 1015.6
20260505062818 -17 0.0 0.0 0.00 0.00 0.00 1015.4
20260505062315 12 2 0.0 0.0 0.00 0.00 0.00 79 1015.3
20260505061812 12 2 0.0 0.0 0.00 0.00 0.00 79 1015.3
20260505061310 12 16 0.0 1.6 0.00 0.00 0.00 79 1015.3
20260505060807 12 358 0.0 0.0 0.00 0.00 0.00 79 1015.2
20260505060304 12 358 0.0 0.0 0.00 0.00 0.00 79 1015.2
20260505055759 12 3 0.0 0.0 0.00 0.00 0.00 79 1015.3
20260505055256 12 4 0.0 1.6 0.00 0.00 0.00 79 1015.3
20260505054753 12 359 0.0 0.0 0.00 0.00 0.00 79 1015.3
20260505054251 12 348 0.0 0.0 0.00 0.00 0.00 78 1015.5
20260505053749 12 348 0.0 0.0 0.00 0.00 0.00 78 1015.7
20260505053245 12 357 1.6 1.6 0.00 0.00 0.00 78 1015.9
20260505052743 12 359 0.0 1.6 0.00 0.00 0.00 78 1015.9
20260505052240 12 358 3.2 3.2 0.00 0.00 0.00 78 1015.8
20260505051736 12 355 0.0 0.0 0.00 0.00 0.00 78 1016.0
20260505051234 12 5 3.2 3.2 0.00 0.00 0.00 78 1015.7
20260505050732 12 345 0.0 1.6 0.00 0.00 0.00 77 1015.9
20260505050230 13 348 1.6 1.6 0.00 0.00 0.00 76 1015.9
20260505041700 -17 0.0 0.0 0.00 0.00 0.00 1015.5
20260505041157 -17 0.0 0.0 0.00 0.00 0.00 1015.4
20260505040654 13 350 0.0 1.6 0.00 0.00 0.00 69 1015.4
20260505040151 13 350 0.0 1.6 0.00 0.00 0.00 69 1015.2
20260505035648 -17 0.0 0.0 0.00 0.00 0.00 1015.2
20260505035144 13 356 0.0 0.0 0.00 0.00 0.00 69 1015.0
20260505034641 13 356 0.0 0.0 0.00 0.00 0.00 69 1014.9
20260505034138 13 347 0.0 0.0 0.00 0.00 0.00 70 1014.7
20260505033634 14 351 0.0 0.0 0.00 0.00 0.00 70 1014.6
20260505033133 14 249 3.2 3.2 0.00 0.00 0.00 70 1014.9
20260505032630 13 358 0.0 0.0 0.00 0.00 0.00 71 1014.6
20260505032126 13 354 0.0 0.0 0.00 0.00 0.00 70 1014.5
20260505031624 13 8 4.8 4.8 0.00 0.00 0.00 70 1014.5
20260505031120 13 8 4.8 4.8 0.00 0.00 0.00 70 1014.7
20260505030617 13 355 0.0 0.0 0.00 0.00 0.00 71 1014.8
20260505030113 13 348 3.2 3.2 0.00 0.00 0.00 70 1014.6
20260505025609 13 358 1.6 3.2 0.00 0.00 0.00 70 1014.8
20260505025108 14 12 3.2 3.2 0.00 0.00 0.00 70 1014.8
20260505024605 14 28 1.6 3.2 0.00 0.00 0.00 70 1014.8
20260505024102 14 314 1.6 1.6 0.00 0.00 0.00 69 1014.5
20260505023559 14 238 6.4 8.0 0.00 0.00 0.00 68 1014.6
20260505023057 15 359 3.2 3.2 0.00 0.00 0.00 66 1014.6
20260505022554 15 8 3.2 3.2 0.00 0.00 0.00 65 1014.7
20260505022051 15 359 4.8 4.8 0.00 0.00 0.00 65 1014.5
20260505021547 15 354 0.0 1.6 0.00 0.00 0.00 65 1014.6
20260505021044 15 357 0.0 1.6 0.00 0.00 0.00 65 1014.6
20260505020544 15 12 4.8 8.0 0.00 0.00 0.00 65 1014.5
20260505020041 15 0 1.6 3.2 0.00 0.00 0.00 66 1014.4
20260505015538 15 19 3.2 3.2 0.00 0.00 0.00 67 1014.4
20260505015035 15 353 1.6 1.6 0.00 0.00 0.00 67 1014.5
20260505014532 15 330 4.8 8.0 0.00 0.00 0.00 66 1014.3
20260505014029 15 10 4.8 4.8 0.00 0.00 0.00 66 1014.4
20260505013526 15 2 1.6 3.2 0.00 0.00 0.00 66 1014.4
20260505013023 15 359 3.2 3.2 0.00 0.00 0.00 66 1014.7
20260505012522 15 350 3.2 3.2 0.00 0.00 0.00 66 1014.5
20260505012018 15 350 0.0 0.0 0.00 0.00 0.00 66 1014.8
20260505011513 15 353 3.2 3.2 0.00 0.00 0.00 66 1014.5
20260505011011 15 350 1.6 1.6 0.00 0.00 0.00 66 1014.7
20260505010506 16 342 1.6 1.6 0.00 0.00 0.00 64 1014.6
20260505010003 16 340 0.0 1.6 0.00 0.00 0.00 64 1014.8
20260505005459 16 343 1.6 1.6 0.00 0.00 0.00 65 1014.8
20260505004957 16 279 3.2 4.8 0.00 0.00 0.00 65 1014.8
20260505004454 16 8 1.6 3.2 0.00 0.00 0.00 66 1014.9
20260505003951 15 338 1.6 3.2 0.00 0.00 0.00 66 1014.9
20260505003448 15 325 1.6 3.2 0.00 0.00 0.00 66 1015.0
20260505002944 16 338 1.6 1.6 0.00 0.00 0.00 67 1015.0
20260505002440 16 328 6.4 8.0 0.00 0.00 0.00 66 1014.7
20260505001939 16 341 0.0 1.6 0.00 0.00 0.00 66 1014.8
20260505001436 16 316 3.2 3.2 0.00 0.00 0.00 64 1014.8
20260505000933 16 6 4.8 4.8 0.00 0.00 0.00 64 1014.7
20260505000431 17 355 3.2 3.2 0.00 0.00 0.00 63 1014.7
20260504235927 17 309 0.0 1.6 0.00 0.00 0.00 64 1014.3
20260504235425 17 286 3.2 3.2 0.00 0.00 0.00 64 1014.6
20260504234921 16 357 1.6 3.2 0.00 0.00 0.00 66 1014.6
20260504234419 16 319 1.6 3.2 0.00 0.00 0.00 66 1014.6
20260504233915 16 353 1.6 1.6 0.00 0.00 0.00 65 1014.6
20260504233411 16 340 0.0 1.6 0.00 0.00 0.00 63 1014.6
20260504232908 16 14 0.0 0.0 0.00 0.00 0.00 65 1014.7
20260504232405 16 355 1.6 3.2 0.00 0.00 0.00 64 1014.5
20260504231901 16 334 0.0 1.6 0.00 0.00 0.00 64 1014.5
20260504231358 16 333 0.0 0.0 0.00 0.00 0.00 64 1014.7
20260504230854 16 357 0.0 0.0 0.00 0.00 0.00 65 1014.6
20260504230352 16 329 0.0 1.6 0.00 0.00 0.00 65 1014.6
20260504225850 16 337 0.0 0.0 0.00 0.00 0.00 68 1014.7
20260504225346 16 347 0.0 0.0 0.00 0.00 0.00 69 1014.7
20260504224844 16 324 0.0 0.0 0.00 0.00 0.00 70 1014.8
20260504224341 16 292 1.6 1.6 0.00 0.00 0.00 68 1014.5
20260504223837 16 319 1.6 1.6 0.00 0.00 0.00 66 1014.7
20260504223333 16 8 0.0 1.6 0.00 0.00 0.00 64 1014.6
20260504222830 16 0 0.0 0.0 0.00 0.00 0.00 65 1014.7
20260504222327 16 359 0.0 0.0 0.00 0.00 0.00 65 1014.9
20260504221825 16 358 0.0 1.6 0.00 0.00 0.00 65 1014.7
20260504221321 16 5 1.6 1.6 0.00 0.00 0.00 65 1014.8
20260504220818 16 355 3.2 3.2 0.00 0.00 0.00 64 1014.9
20260504220315 16 18 0.0 0.0 0.00 0.00 0.00 64 1014.9
20260504215813 16 7 0.0 0.0 0.00 0.00 0.00 64 1014.8
20260504215309 16 323 0.0 0.0 0.00 0.00 0.00 64 1014.9
20260504214805 16 351 0.0 0.0 0.00 0.00 0.00 64 1015.0
20260504214302 16 338 1.6 1.6 0.00 0.00 0.00 63 1014.8
20260504213758 17 347 1.6 1.6 0.00 0.00 0.00 62 1015.1
20260504213255 17 294 1.6 1.6 0.00 0.00 0.00 62 1014.9
20260504212752 16 337 1.6 1.6 0.00 0.00 0.00 63 1015.1
20260504212248 16 236 6.4 9.7 0.00 0.00 0.00 63 1014.9
20260504211746 16 225 4.8 9.7 0.00 0.00 0.00 62 1015.1
20260504211241 16 257 6.4 8.0 0.00 0.00 0.00 62 1015.2
20260504210739 16 206 1.6 3.2 0.00 0.00 0.00 63 1015.4
20260504210236 16 206 1.6 3.2 0.00 0.00 0.00 63 1015.3
20260504205733 16 323 3.2 3.2 0.00 0.00 0.00 63 1015.4
20260504205231 16 323 3.2 3.2 0.00 0.00 0.00 63 1015.3
20260504204729 16 322 0.0 1.6 0.00 0.00 0.00 64 1015.4
20260504204227 16 248 3.2 3.2 0.00 0.00 0.00 64 1015.4